Flag for Barbados Weather past 2 weeks in Bridgetown, Barbados

Now
77 °F

Scattered clouds.


Feels Like: 79 °F
Forecast: 77 / 84 °F
Wind: 12 mph from East

Location: Grantley Adams

Current Time: Apr 1, 2015 at 6:42:15 AM

Latest Report: Apr 1, 2015 at 6:00 AM


Visibility: N/A

Pressure: 30.01 "Hg

Humidity: 74%

Dew point: 68 °F

Location of BridgetownLocation

Historic Weather in Bridgetown — Graph

°F

Bridgetown temperature yesterday

Maximum temperature yesterday: 82 °F (at 12:00 PM)
Minimum temperature yesterday: 72 °F (at 6:00 AM)
Average temperature yesterday: 78 °F

Past Weeks' High & Low Weather Summary

 TemperatureHumidityPressure
High84 °F (Mar 18, 11:00 AM)100% (Mar 20, 4:00 PM)30.09 "Hg (Mar 20, 4:00 PM)
Low70 °F (Mar 17, 5:00 AM)45% (Mar 30, 1:00 PM)29.89 "Hg (Mar 17, 4:00 PM)
Average79 °F77%29.99 "Hg
* Reported Mar 17 5:00 AM — Apr 1 5:00 AM, Bridgetown, Weather by CustomWeather, © 2015

Note: Actual official high and low records may vary slightly from our data, if they occured in-between our weather recording intervals... More about our weather records

Advertising

Bridgetown weather history for previous 24 hours

 ConditionsComfort  
Time TempWeatherWind HumidityBarometerVisibility
5:00 AM
Wed, Apr 1
77 °FPassing clouds.14 mph79%29.98 "HgN/A
4:00 AM77 °FPassing clouds.12 mph74%29.98 "HgN/A
3:00 AM77 °FPassing clouds.10 mph74%29.98 "HgN/A
2:00 AM77 °FPassing clouds.10 mph74%29.98 "HgN/A
1:00 AM77 °FPassing clouds.13 mph83%29.98 "HgN/A
12:00 AM77 °FScattered showers. Passing clouds.9 mph79%30.01 "HgN/A
11:00 PM
Tue, Mar 31
77 °FRain showers. Passing clouds.12 mph79%30.01 "HgN/A
10:00 PM77 °FPassing clouds.12 mph79%30.01 "HgN/A
9:00 PM77 °FPassing clouds.10 mph79%30.01 "HgN/A
8:00 PM77 °FPassing clouds.12 mph79%29.98 "HgN/A
7:00 PM77 °FPassing clouds.9 mph79%29.98 "HgN/A
6:00 PM77 °FScattered clouds.10 mph79%29.95 "HgN/A
5:00 PM79 °FScattered clouds.12 mph74%29.95 "HgN/A
3:00 PM75 °FRain showers. Partly sunny.9 mph89%29.95 "Hg2 mi
2:00 PM81 °FScattered showers. Broken clouds.12 mph70%29.98 "Hg5 mi
1:00 PM82 °FScattered clouds.13 mph62%30.01 "HgN/A
12:00 PM82 °FPartly sunny.10 mph62%30.04 "HgN/A
11:00 AM81 °FPartly sunny.12 mph66%30.04 "HgN/A
10:00 AM81 °FScattered clouds.15 mph66%30.04 "HgN/A
9:00 AM81 °FPartly sunny.17 mph62%30.04 "HgN/A
8:00 AM77 °FPartly sunny.6 mph74%30.04 "HgN/A
7:00 AM77 °FPartly sunny.6 mph69%30.01 "HgN/A
6:00 AM72 °FPartly sunny.8 mph88%29.98 "HgN/A
Weather by CustomWeather, © 2015

See weather overviewHow to use our weather pages